Location: Champs
(48.8539°N, 2.6040°E)
Time: 23:20:40
(UTC+00:00)

DMSP 5D-2 F13 DEB - Pass Details

Date: 10 August 2022
Orbit: 710 x 774 km, 98.8° (Epoch: 28 September)

Event Time Altitude Azimuth Distance (km) Brightness Sun altitude
Exits shadow 21:10:13 - 83° (E) 2,454 ? -16.1°
Reaches altitude 10° 21:10:56 10° 76° (ENE) 2,319 ? -16.2°
Maximum altitude 21:13:06 13° 51° (NE) 2,140 ? -16.5°
Drops below altitude 10° 21:15:16 10° 26° (NNE) 2,338 ? -16.7°
Sets 21:18:56 0° 359° (N) 3,279 ? -17.1°
